Regional Weather Roundup
Issued by NWS Midland/Odessa, TX

Home | Current Version | Previous Version | Text Only | Print | Product List | Glossary On
Versions: 1 2 3 4 5 6 7 8 9 10 11 12 13 14 15 16 17 18 19 20 21 22 23 24 25 26 27 28 29 30 31 32 33 34 35 36 37 38 39 40 41 42 43 44 45 46 47 48 49 50
000
ASUS44 KMAF 170310
RWRMAF
MIDLAND AREA WEATHER ROUNDUP
NATIONAL WEATHER SERVICE MIDLAND TX
900 PM CST MON JAN 16 2017

...IN SOUTHWEST TEXAS AND SOUTHEAST NEW MEXICO...

CITY           SKY/WX    TMP DP  RH WIND       PRES   REMARKS
ALPINE         CLOUDY    47  31  53 CALM      30.11S
ANDREWS        FAIR      44  37  76 E7        30.07R WCI  40
ARTESIA        PTCLDY    46  45  93 W6        30.04R
BIG SPRING     PTCLDY    50  43  76 NE8       30.08R
CARLSBAD       CLEAR     46  39  76 W3        30.02R
DRYDEN           N/A     57  43  59 CALM      30.00R
FORT STOCKTON  PTCLDY    52  38  58 SE8       30.04R
GUAD PASS      NOT AVBL
HOBBS          NOT AVBL
MARFA          CLEAR     37  31  78 N7        30.07R WCI  32
MIDLAND AIRPK  CLEAR     50  40  68 CALM      30.06R
MIDLAND INTL   CLOUDY    49  38  65 CALM      30.05R
ODESSA         CLOUDY    53  37  54 SE5       30.05R
PECOS          CLEAR     46  38  73 CALM      30.03R
PRESIDIO       FAIR      54  36  51 NW3       29.98R
SEMINOLE       CLEAR     47  42  85 NE12      30.08R
SNYDER         PTCLDY    48  41  77 NE7       30.08R
WINK           CLEAR     47  38  71 E7        30.03R
$$
...OTHER STATIONS IN TEXAS...

CITY           SKY/WX    TMP DP  RH WIND       PRES   REMARKS
ABILENE        CLOUDY    50  43  77 NE6       30.07R
AMARILLO       CLOUDY    37  32  82 NW13      30.11R WCI  29
AUSTIN         CLOUDY    61  57  87 NE7       30.01R
BROWNSVILLE    PTCLDY    69  67  93 SE6       29.98R
CORPUS CHRISTI CLOUDY    70  68  93 SE14      29.96R
DALLAS FTW     CLOUDY    53  44  71 N9        30.04S
DEL RIO        CLOUDY    58  45  62 CALM      29.98S
EL PASO        CLOUDY    49  37  63 CALM      30.04R
HOUSTON INT    CLOUDY    72  67  84 SE8       30.01R
LUBBOCK        MOCLDY    41  35  79 NE9       30.10R WCI  35
SAN ANGELO     CLOUDY    51  44  77 NE3       30.03R
SAN ANTONIO    CLOUDY    64  52  64 E5        29.99R
WACO           MOCLDY    59  53  80 N6        30.03R
WICHITA FALLS  NOT AVBL
$$
...OTHER LOCATIONS IN NEW MEXICO...

CITY           SKY/WX    TMP DP  RH WIND       PRES   REMARKS
ALAMAGORDO     CLOUDY    45  37  76 N3        30.06S
ALBUQUERQUE    CLOUDY    43  39  86 SW8       30.07R WCI  38
CANNON AFB     MOCLDY    37  37 100 NE12      30.10R WCI  29
CLOVIS         CLEAR     36  30  80 N13       30.10S WCI  27
HOLLOMAN AFB   CLEAR     44  44  99 NE8       30.08S WCI  40
ROSWELL        CLOUDY    50  40  68 N9        30.04R
RUIDOSO        LGT RAIN  36  36 100 SW3       30.12R
SANTA FE       CLOUDY    36  34  92 S10       30.07R WCI  28
TRUTH OR CONSE CLOUDY    43  39  86 NW7       30.05R WCI  39
TUCUMCARI      CLOUDY    40  32  73 NE10      30.10R WCI  33
$$




USA.gov is the U.S. government's official web portal to all federal, state and local government web resources and services.